| time (UTC) | temp C | wind direction | speed KPH | gust KPH | rain 1hr cm | rain 24hr cm | rain mn cm | humidity % | barometer mb |
| 20260502105620 | -5 | 309 | 0.0 | 3.2 | 0.00 | 0.00 | 0.00 | 78 | 1023.6 |
| 20260502104627 | -5 | 309 | 3.2 | 3.2 | 0.00 | 0.00 | 0.00 | 76 | 1023.7 |
| 20260502103651 | -5 | 309 | 3.2 | 4.8 | 0.00 | 0.00 | 0.00 | 76 | 1023.6 |
| 20260502102615 | -5 | 309 | 3.2 | 6.4 | 0.00 | 0.00 | 0.00 | 76 | 1023.5 |
| 20260502101627 | -4 | 309 | 3.2 | 4.8 | 0.00 | 0.00 | 0.00 | 75 | 1023.5 |
| 20260502100652 | -3 | 309 | 3.2 | 6.4 | 0.00 | 0.00 | 0.00 | 69 | 1023.4 |
| 20260502090621 | -1 | 198 | 3.2 | 6.4 | 0.00 | 0.00 | 0.00 | 66 | 1023.1 |
| 20260502070621 | 1 | 199 | 3.2 | 4.8 | 0.00 | 0.00 | 0.00 | 60 | 1023.3 |
| 20260502065615 | 1 | 199 | 3.2 | 6.4 | 0.00 | 0.00 | 0.00 | 62 | 1023.3 |
| 20260502064624 | 1 | 199 | 4.8 | 6.4 | 0.00 | 0.00 | 0.00 | 61 | 1023.2 |
| 20260502063615 | 1 | 173 | 3.2 | 8.0 | 0.00 | 0.00 | 0.00 | 58 | 1023.1 |
| 20260502062623 | 1 | 173 | 6.4 | 9.7 | 0.00 | 0.00 | 0.00 | 59 | 1023.1 |
| 20260502061631 | 2 | 228 | 3.2 | 8.0 | 0.00 | 0.00 | 0.00 | 58 | 1023.0 |
| 20260502060619 | 2 | 208 | 6.4 | 9.7 | 0.00 | 0.00 | 0.00 | 58 | 1022.8 |
| 20260502055620 | 2 | 250 | 9.7 | 14.5 | 0.00 | 0.00 | 0.00 | 58 | 1022.7 |
| 20260502054627 | 2 | 257 | 8.0 | 12.9 | 0.00 | 0.00 | 0.00 | 55 | 1022.7 |
| 20260502053615 | 3 | 251 | 4.8 | 6.4 | 0.00 | 0.00 | 0.00 | 54 | 1022.6 |
| 20260502052642 | 3 | 251 | 6.4 | 11.3 | 0.00 | 0.00 | 0.00 | 53 | 1022.6 |
| 20260502051615 | 4 | 242 | 4.8 | 8.0 | 0.00 | 0.00 | 0.00 | 48 | 1022.6 |
| 20260502050626 | 4 | 221 | 4.8 | 11.3 | 0.00 | 0.00 | 0.00 | 48 | 1022.6 |
| 20260502045624 | 3 | 230 | 9.7 | 12.9 | 0.00 | 0.00 | 0.00 | 56 | 1022.7 |
| 20260502044650 | 3 | 245 | 8.0 | 12.9 | 0.00 | 0.00 | 0.00 | 57 | 1022.6 |
| 20260502043617 | 2 | 251 | 9.7 | 11.3 | 0.00 | 0.00 | 0.00 | 59 | 1022.5 |
| 20260502042626 | 2 | 265 | 6.4 | 11.3 | 0.00 | 0.00 | 0.00 | 58 | 1022.4 |
| 20260502041631 | 3 | 264 | 4.8 | 9.7 | 0.00 | 0.00 | 0.00 | 53 | 1022.4 |
| 20260502040616 | 5 | 264 | 6.4 | 11.3 | 0.00 | 0.00 | 0.00 | 46 | 1022.3 |
| 20260502035631 | 6 | 249 | 6.4 | 8.0 | 0.00 | 0.00 | 0.00 | 43 | 1022.2 |
| 20260502034624 | 6 | 213 | 4.8 | 8.0 | 0.00 | 0.00 | 0.00 | 39 | 1022.2 |
| 20260502033630 | 5 | 266 | 3.2 | 6.4 | 0.00 | 0.00 | 0.00 | 46 | 1022.0 |
| 20260502032615 | 5 | 266 | 4.8 | 11.3 | 0.00 | 0.00 | 0.00 | 44 | 1021.7 |
| 20260502031621 | 6 | 268 | 9.7 | 14.5 | 0.00 | 0.00 | 0.00 | 41 | 1021.6 |
| 20260502030615 | 6 | 289 | 8.0 | 12.9 | 0.00 | 0.00 | 0.00 | 42 | 1021.4 |
| 20260502025631 | 6 | 282 | 9.7 | 11.3 | 0.00 | 0.00 | 0.00 | 41 | 1021.3 |
| 20260502024617 | 7 | 249 | 8.0 | 11.3 | 0.00 | 0.00 | 0.00 | 41 | 1021.1 |
| 20260502023622 | 7 | 298 | 6.4 | 8.0 | 0.00 | 0.00 | 0.00 | 41 | 1021.1 |
| 20260502022615 | 7 | 297 | 6.4 | 8.0 | 0.00 | 0.00 | 0.00 | 39 | 1021.1 |
| 20260502021622 | 8 | 295 | 6.4 | 8.0 | 0.00 | 0.00 | 0.00 | 38 | 1021.0 |
| 20260502020624 | 11 | 325 | 6.4 | 9.7 | 0.00 | 0.00 | 0.00 | 33 | 1021.0 |
| 20260502015615 | 12 | 333 | 8.0 | 9.7 | 0.00 | 0.00 | 0.00 | 32 | 1020.8 |
| 20260502014640 | 13 | 355 | 6.4 | 8.0 | 0.00 | 0.00 | 0.00 | 30 | 1020.8 |
| 20260502013648 | 14 | 10 | 6.4 | 9.7 | 0.00 | 0.00 | 0.00 | 28 | 1020.7 |
| 20260502012617 | 15 | 5 | 8.0 | 9.7 | 0.00 | 0.00 | 0.00 | 25 | 1020.7 |
| 20260502011644 | 15 | 36 | 1.6 | 4.8 | 0.00 | 0.00 | 0.00 | 21 | 1020.7 |
| 20260502010612 | 15 | 36 | 4.8 | 8.0 | 0.00 | 0.00 | 0.00 | 24 | 1020.6 |
| 20260502005645 | 15 | 24 | 6.4 | 11.3 | 0.00 | 0.00 | 0.00 | 22 | 1020.7 |
| 20260502004616 | 15 | 26 | 6.4 | 14.5 | 0.00 | 0.00 | 0.00 | 21 | 1020.6 |
| 20260502003620 | 15 | 42 | 3.2 | 9.7 | 0.00 | 0.00 | 0.00 | 20 | 1020.7 |
| 20260502002624 | 15 | 57 | 6.4 | 14.5 | 0.00 | 0.00 | 0.00 | 20 | 1020.6 |
| 20260502001652 | 15 | 46 | 6.4 | 17.7 | 0.00 | 0.00 | 0.00 | 20 | 1020.8 |
| 20260502000616 | 15 | 69 | 8.0 | 16.1 | 0.00 | 0.00 | 0.00 | 19 | 1020.8 |
| 20260501235629 | 15 | 49 | 4.8 | 14.5 | 0.00 | 0.00 | 0.00 | 21 | 1020.8 |
| 20260501234633 | 15 | 44 | 8.0 | 17.7 | 0.00 | 0.00 | 0.00 | 22 | 1020.8 |
| 20260501233616 | 15 | 82 | 6.4 | 11.3 | 0.00 | 0.00 | 0.00 | 21 | 1020.8 |
| 20260501232626 | 15 | 14 | 3.2 | 12.9 | 0.00 | 0.00 | 0.00 | 20 | 1020.8 |
| 20260501231616 | 15 | 62 | 3.2 | 19.3 | 0.00 | 0.00 | 0.00 | 19 | 1020.8 |
| 20260501230644 | 15 | 15 | 9.7 | 22.5 | 0.00 | 0.00 | 0.00 | 21 | 1020.9 |
| 20260501225622 | 15 | 135 | 8.0 | 16.1 | 0.00 | 0.00 | 0.00 | 20 | 1020.9 |
| 20260501224629 | 15 | 48 | 4.8 | 11.3 | 0.00 | 0.00 | 0.00 | 22 | 1021.0 |
| 20260501223621 | 15 | 288 | 9.7 | 16.1 | 0.00 | 0.00 | 0.00 | 22 | 1021.0 |
| 20260501222628 | 15 | 56 | 6.4 | 16.1 | 0.00 | 0.00 | 0.00 | 23 | 1021.1 |
| 20260501221617 | 15 | 341 | 6.4 | 14.5 | 0.00 | 0.00 | 0.00 | 22 | 1021.2 |
| 20260501220626 | 15 | 323 | 4.8 | 20.9 | 0.00 | 0.00 | 0.00 | 23 | 1021.3 |
| 20260501215626 | 15 | 341 | 11.3 | 17.7 | 0.00 | 0.00 | 0.00 | 23 | 1021.4 |
| 20260501214631 | 15 | 333 | 8.0 | 27.4 | 0.00 | 0.00 | 0.00 | 23 | 1021.6 |
| 20260501213617 | 14 | 31 | 9.7 | 17.7 | 0.00 | 0.00 | 0.00 | 25 | 1021.6 |
| 20260501212624 | 14 | 55 | 9.7 | 17.7 | 0.00 | 0.00 | 0.00 | 27 | 1021.7 |
| 20260501211619 | 14 | 71 | 9.7 | 20.9 | 0.00 | 0.00 | 0.00 | 24 | 1021.9 |
| 20260501210625 | 14 | 5 | 14.5 | 24.1 | 0.00 | 0.00 | 0.00 | 25 | 1021.8 |
| 20260501205622 | 13 | 67 | 9.7 | 20.9 | 0.00 | 0.00 | 0.00 | 25 | 1021.9 |
| 20260501204612 | 13 | 33 | 8.0 | 22.5 | 0.00 | 0.00 | 0.00 | 25 | 1021.9 |
| 20260501203624 | 13 | 34 | 11.3 | 17.7 | 0.00 | 0.00 | 0.00 | 26 | 1021.9 |
| 20260501202630 | 13 | 175 | 6.4 | 14.5 | 0.00 | 0.00 | 0.00 | 24 | 1022.1 |
| 20260501201613 | 13 | 63 | 6.4 | 20.9 | 0.00 | 0.00 | 0.00 | 25 | 1022.0 |
| 20260501200618 | 13 | 46 | 14.5 | 19.3 | 0.00 | 0.00 | 0.00 | 27 | 1022.0 |
| 20260501195624 | 12 | 80 | 6.4 | 14.5 | 0.00 | 0.00 | 0.00 | 26 | 1022.0 |
| 20260501194612 | 13 | 54 | 11.3 | 17.7 | 0.00 | 0.00 | 0.00 | 26 | 1022.1 |
| 20260501193616 | 12 | 329 | 4.8 | 9.7 | 0.00 | 0.00 | 0.00 | 29 | 1022.2 |
| 20260501192625 | 12 | 241 | 9.7 | 12.9 | 0.00 | 0.00 | 0.00 | 28 | 1022.3 |
| 20260501191638 | 12 | 243 | 8.0 | 14.5 | 0.00 | 0.00 | 0.00 | 27 | 1022.4 |
| 20260501190644 | 12 | 17 | 4.8 | 16.1 | 0.00 | 0.00 | 0.00 | 29 | 1022.4 |
| 20260501185639 | 12 | 343 | 6.4 | 24.1 | 0.00 | 0.00 | 0.00 | 32 | 1022.5 |
| 20260501184624 | 12 | 56 | 6.4 | 16.1 | 0.00 | 0.00 | 0.00 | 36 | 1022.6 |
| 20260501183615 | 11 | 338 | 8.0 | 16.1 | 0.00 | 0.00 | 0.00 | 36 | 1022.8 |
| 20260501182622 | 11 | 319 | 8.0 | 17.7 | 0.00 | 0.00 | 0.00 | 37 | 1022.9 |
| 20260501181630 | 10 | 195 | 3.2 | 12.9 | 0.00 | 0.00 | 0.00 | 37 | 1022.9 |
| 20260501180616 | 10 | 42 | 16.1 | 22.5 | 0.00 | 0.00 | 0.00 | 37 | 1023.0 |
| 20260501175614 | 10 | 360 | 8.0 | 16.1 | 0.00 | 0.00 | 0.00 | 38 | 1023.1 |
| 20260501174626 | 10 | 247 | 4.8 | 9.7 | 0.00 | 0.00 | 0.00 | 37 | 1023.2 |
| 20260501173630 | 10 | 24 | 6.4 | 14.5 | 0.00 | 0.00 | 0.00 | 38 | 1023.3 |
| 20260501172615 | 10 | 344 | 6.4 | 22.5 | 0.00 | 0.00 | 0.00 | 39 | 1023.3 |
| 20260501171643 | 9 | 201 | 4.8 | 12.9 | 0.00 | 0.00 | 0.00 | 38 | 1023.4 |
| 20260501170615 | 9 | 211 | 3.2 | 8.0 | 0.00 | 0.00 | 0.00 | 40 | 1023.5 |
| 20260501165614 | 8 | 42 | 8.0 | 16.1 | 0.00 | 0.00 | 0.00 | 41 | 1023.5 |
| 20260501164618 | 8 | 113 | 3.2 | 6.4 | 0.00 | 0.00 | 0.00 | 41 | 1023.5 |
| 20260501163623 | 8 | 115 | 3.2 | 6.4 | 0.00 | 0.00 | 0.00 | 41 | 1023.6 |
| 20260501161625 | 7 | 177 | 1.6 | 6.4 | 0.00 | 0.00 | 0.00 | 46 | 1023.6 |
| 20260501160613 | 6 | 32 | 6.4 | 14.5 | 0.00 | 0.00 | 0.00 | 51 | 1023.7 |
| 20260501155650 | 6 | 54 | 8.0 | 14.5 | 0.00 | 0.00 | 0.00 | 56 | 1023.7 |
| 20260501153643 | 5 | 67 | 8.0 | 12.9 | 0.00 | 0.00 | 0.00 | 67 | 1023.8 |
| 20260501152629 | 4 | 61 | 9.7 | 16.1 | 0.00 | 0.00 | 0.00 | 68 | 1023.9 |
| 20260501151613 | 3 | 49 | 9.7 | 14.5 | 0.00 | 0.00 | 0.00 | 71 | 1023.9 |
| 20260501150623 | 2 | 56 | 9.7 | 16.1 | 0.00 | 0.00 | 0.00 | 74 | 1023.9 |
| 20260501145626 | 2 | 42 | 8.0 | 11.3 | 0.00 | 0.00 | 0.00 | 77 | 1023.9 |
| 20260501144613 | 2 | 71 | 8.0 | 12.9 | 0.00 | 0.00 | 0.00 | 78 | 1023.7 |
| 20260501143623 | 1 | 73 | 6.4 | 11.3 | 0.00 | 0.00 | 0.00 | 80 | 1023.7 |
| 20260501142613 | 1 | 59 | 4.8 | 6.4 | 0.00 | 0.00 | 0.00 | 81 | 1023.7 |